• In Germany
  • List of Countries
  • For 7 days
  • Water Temperature
  • Satellite Maps
  • Weather Map
  • Weather Widgets
  • user-avatar
    Login

    Hourly Weather Sidi Bu-l-Abbas

    Today, 21 January, Sunday

    Time Temperature Precipitation Wind Pressure Humidity
    00:00 +10°C° 0 mm 3 mps 727 mmHg 50%
    01:00 +10°C° 0 mm 3 mps 727 mmHg 47%
    02:00 +10°C° 0 mm 3 mps 727 mmHg 43%
    03:00 +10°C° 0 mm 3 mps 726 mmHg 40%
    04:00 +9°C° 0 mm 3 mps 726 mmHg 40%
    05:00 +9°C° 0 mm 3 mps 726 mmHg 40%
    06:00 +9°C° 0 mm 3 mps 726 mmHg 43%
    07:00 +10°C° 0 mm 3 mps 727 mmHg 41%
    08:00 +12°C° 0 mm 3 mps 727 mmHg 39%
    09:00 +13°C° 0 mm 3 mps 727 mmHg 38%
    10:00 +14°C° 0 mm 4 mps 728 mmHg 36%
    11:00 +15°C° 0 mm 5 mps 728 mmHg 34%
    12:00 +17°C° 0 mm 5 mps 728 mmHg 32%
    13:00 +17°C° 0 mm 5 mps 728 mmHg 33%
    14:00 +17°C° 0 mm 5 mps 727 mmHg 34%
    15:00 +17°C° 0 mm 5 mps 727 mmHg 35%
    16:00 +15°C° 0 mm 4 mps 727 mmHg 42%
    17:00 +13°C° 0 mm 3 mps 727 mmHg 48%
    18:00 +13°C° 0 mm 2 mps 727 mmHg 55%
    19:00 +12°C° 0 mm 2 mps 727 mmHg 55%
    20:00 +12°C° 0 mm 2 mps 728 mmHg 55%
    21:00 +11°C° 0 mm 1 mps 728 mmHg 55%
    22:00 +11°C° 0 mm 1 mps 728 mmHg 53%
    23:00 +11°C° 0 mm 1 mps 728 mmHg 52%

    Tomorrow, 22 January, Monday

    Time Temperature Precipitation Wind Pressure Humidity
    00:00 +11°C° 0 mm 1 mps 728 mmHg 51%
    01:00 +11°C° 0 mm 1 mps 728 mmHg 51%
    02:00 +10°C° 0 mm 1 mps 727 mmHg 51%
    03:00 +10°C° 0 mm 1 mps 727 mmHg 51%
    04:00 +10°C° 0 mm 1 mps 727 mmHg 51%
    05:00 +10°C° 0 mm 1 mps 727 mmHg 52%
    06:00 +9°C° 0 mm 1 mps 727 mmHg 53%
    07:00 +11°C° 0 mm 1 mps 727 mmHg 49%
    08:00 +13°C° 0 mm 1 mps 728 mmHg 46%
    09:00 +15°C° 0 mm 1 mps 728 mmHg 42%
    10:00 +16°C° 0 mm 1 mps 728 mmHg 40%
    11:00 +18°C° 0 mm 1 mps 728 mmHg 38%
    12:00 +19°C° 0 mm 1 mps 728 mmHg 36%
    13:00 +20°C° 0 mm 1 mps 728 mmHg 36%
    14:00 +20°C° 0 mm 1 mps 727 mmHg 37%
    15:00 +19°C° 0 mm 2 mps 727 mmHg 37%
    16:00 +18°C° 0 mm 1 mps 727 mmHg 45%
    17:00 +15°C° 0 mm 1 mps 727 mmHg 52%
    18:00 +13°C° 0 mm 1 mps 726 mmHg 60%
    19:00 +13°C° 0 mm 1 mps 727 mmHg 61%
    20:00 +12°C° 0 mm 1 mps 727 mmHg 63%
    21:00 +11°C° 0 mm 0 mps 727 mmHg 64%
    22:00 +11°C° 0 mm 0 mps 727 mmHg 65%
    23:00 +10°C° 0 mm 0 mps 727 mmHg 65%

    Day after tomorrow, 23 January, Tuesday

    Time Temperature Precipitation Wind Pressure Humidity
    00:00 +10°C° 0 mm 0 mps 727 mmHg 65%
    01:00 +10°C° 0 mm 0 mps 726 mmHg 67%
    02:00 +9°C° 0 mm 0 mps 726 mmHg 69%
    03:00 +9°C° 0 mm 0 mps 726 mmHg 70%
    04:00 +9°C° 0 mm 0 mps 726 mmHg 72%
    05:00 +9°C° 0 mm 0 mps 726 mmHg 73%
    06:00 +8°C° 0 mm 0 mps 726 mmHg 74%
    07:00 +12°C° 0 mm 1 mps 727 mmHg 65%
    08:00 +14°C° 0 mm 1 mps 727 mmHg 56%
    09:00 +16°C° 0 mm 1 mps 728 mmHg 47%
    10:00 +18°C° 0 mm 1 mps 728 mmHg 43%
    11:00 +19°C° 0 mm 1 mps 728 mmHg 39%
    12:00 +20°C° 0 mm 1 mps 728 mmHg 35%
    13:00 +20°C° 0 mm 1 mps 728 mmHg 35%
    14:00 +20°C° 0 mm 2 mps 727 mmHg 35%
    15:00 +20°C° 0 mm 2 mps 727 mmHg 35%
    16:00 +18°C° 0 mm 2 mps 727 mmHg 42%
    17:00 +16°C° 0 mm 2 mps 727 mmHg 49%
    18:00 +14°C° 0 mm 1 mps 727 mmHg 57%
    19:00 +13°C° 0 mm 1 mps 727 mmHg 59%
    20:00 +13°C° 0 mm 1 mps 727 mmHg 61%
    21:00 +12°C° 0 mm 1 mps 728 mmHg 63%
    22:00 +12°C° 0 mm 1 mps 727 mmHg 64%
    23:00 +11°C° 0 mm 0 mps 727 mmHg 65%

    24 January, Wednesday

    Time Temperature Precipitation Wind Pressure Humidity
    00:00 +10°C° 0 mm 0 mps 727 mmHg 66%
    01:00 +10°C° 0 mm 0 mps 727 mmHg 67%
    02:00 +10°C° 0 mm 0 mps 727 mmHg 68%
    03:00 +9°C° 0 mm 0 mps 726 mmHg 69%
    04:00 +10°C° 0 mm 1 mps 726 mmHg 69%
    05:00 +10°C° 0 mm 1 mps 726 mmHg 69%
    06:00 +10°C° 0 mm 1 mps 726 mmHg 69%
    07:00 +12°C° 0 mm 1 mps 727 mmHg 61%
    08:00 +14°C° 0 mm 1 mps 727 mmHg 53%
    09:00 +16°C° 0 mm 1 mps 728 mmHg 45%
    10:00 +18°C° 0 mm 1 mps 728 mmHg 41%
    11:00 +20°C° 0 mm 1 mps 728 mmHg 37%
    12:00 +21°C° 0 mm 1 mps 728 mmHg 33%
    13:00 +21°C° 0 mm 1 mps 727 mmHg 33%
    14:00 +20°C° 0 mm 2 mps 727 mmHg 33%
    15:00 +21°C° 0 mm 2 mps 726 mmHg 33%
    16:00 +19°C° 0 mm 2 mps 726 mmHg 40%
    17:00 +17°C° 0 mm 2 mps 726 mmHg 47%
    18:00 +15°C° 0 mm 1 mps 726 mmHg 54%
    19:00 +14°C° 0 mm 1 mps 726 mmHg 56%
    20:00 +14°C° 0 mm 1 mps 726 mmHg 58%
    21:00 +13°C° 0 mm 1 mps 726 mmHg 60%
    22:00 +13°C° 0 mm 1 mps 726 mmHg 60%
    23:00 +12°C° 0 mm 1 mps 726 mmHg 60%

    25 January, Thursday

    Time Temperature Precipitation Wind Pressure Humidity
    00:00 +12°C° 0 mm 1 mps 726 mmHg 61%
    01:00 +12°C° 0 mm 1 mps 726 mmHg 61%
    02:00 +11°C° 0 mm 1 mps 725 mmHg 61%
    03:00 +11°C° 0 mm 1 mps 725 mmHg 61%
    04:00 +11°C° 0 mm 1 mps 725 mmHg 62%
    05:00 +10°C° 0 mm 2 mps 725 mmHg 62%
    06:00 +9°C° 0 mm 2 mps 725 mmHg 63%
    07:00 +12°C° 0 mm 2 mps 725 mmHg 58%
    08:00 +14°C° 0 mm 2 mps 726 mmHg 53%
    09:00 +15°C° 0 mm 2 mps 726 mmHg 49%
    10:00 +16°C° 0 mm 3 mps 726 mmHg 45%
    11:00 +18°C° 0 mm 3 mps 726 mmHg 40%
    12:00 +19°C° 0 mm 4 mps 726 mmHg 36%
    13:00 +19°C° 0 mm 4 mps 725 mmHg 35%
    14:00 +19°C° 0 mm 4 mps 725 mmHg 35%
    15:00 +19°C° 0 mm 4 mps 724 mmHg 35%
    16:00 +17°C° 0 mm 4 mps 724 mmHg 43%
    17:00 +14°C° 0 mm 3 mps 724 mmHg 51%
    18:00 +13°C° 0 mm 2 mps 724 mmHg 59%
    19:00 +13°C° 0 mm 2 mps 724 mmHg 62%
    20:00 +12°C° 0 mm 2 mps 724 mmHg 65%
    21:00 +12°C° 0 mm 2 mps 724 mmHg 67%
    22:00 +10°C° 0 mm 2 mps 724 mmHg 68%
    23:00 +10°C° 0 mm 2 mps 724 mmHg 68%

    26 January, Friday

    Time Temperature Precipitation Wind Pressure Humidity
    00:00 +10°C° 0 mm 3 mps 724 mmHg 68%
    01:00 +10°C° 0 mm 3 mps 724 mmHg 68%
    02:00 +10°C° 0 mm 3 mps 724 mmHg 67%
    03:00 +9°C° 0 mm 3 mps 724 mmHg 67%
    04:00 +10°C° 0.2 mm 4 mps 724 mmHg 70%
    05:00 +10°C° 0.2 mm 4 mps 724 mmHg 73%
    06:00 +9°C° 0.2 mm 5 mps 725 mmHg 76%
    07:00 +9°C° 0.5 mm 5 mps 725 mmHg 77%
    08:00 +9°C° 0.5 mm 6 mps 726 mmHg 78%
    09:00 +9°C° 0.5 mm 6 mps 726 mmHg 79%
    10:00 +9°C° 0.3 mm 6 mps 726 mmHg 72%
    11:00 +9°C° 0.3 mm 6 mps 726 mmHg 66%
    12:00 +9°C° 0.3 mm 6 mps 727 mmHg 60%
    13:00 +9°C° 0 mm 5 mps 727 mmHg 56%
    14:00 +10°C° 0 mm 4 mps 726 mmHg 52%
    15:00 +10°C° 0 mm 3 mps 726 mmHg 47%
    16:00 +9°C° 0 mm 3 mps 727 mmHg 51%
    17:00 +8°C° 0 mm 2 mps 727 mmHg 54%
    18:00 +7°C° 0 mm 2 mps 727 mmHg 58%
    19:00 +7°C° 0 mm 2 mps 727 mmHg 59%
    20:00 +6°C° 0 mm 2 mps 728 mmHg 61%
    21:00 +5°C° 0 mm 3 mps 728 mmHg 62%
    22:00 +5°C° 0.2 mm 3 mps 728 mmHg 65%
    23:00 +5°C° 0.2 mm 3 mps 728 mmHg 68%
    Show more